This is the latest recevied weather packets stored in our database for station/object KB1RMA-4. If no packets are shown the sender has not sent any weather packets the latest 10 day(s).
| Time | Temp. | Humidity | Pressure | Rain* | Wind** | Luminosity | Snow |
|---|---|---|---|---|---|---|---|
| 1787749120 | 20.56° C | 69% | 1017.7 hPa | 0 mm | - | 58 W/m² | - |
| 1787748815 | 20.56° C | 69% | 1017.6 hPa | 0 mm | - | 57 W/m² | - |
| 1787748515 | 20.56° C | 69% | 1017.8 hPa | 0 mm | - | 72 W/m² | - |
| 1787748212 | 20.56° C | 69% | 1017.6 hPa | 0 mm | - | 67 W/m² | - |
| 1787747911 | 20° C | 69% | 1017.6 hPa | 0 mm | - | 55 W/m² | - |
| 1787747606 | 20° C | 70% | 1017.8 hPa | 0 mm | - | 54 W/m² | - |
| 1787747301 | 20° C | 69% | 1017.5 hPa | 0 mm | - | 53 W/m² | - |
| 1787746996 | 20° C | 70% | 1017.6 hPa | 0 mm | - | 55 W/m² | - |
| 1787746692 | 19.44° C | 71% | 1017.6 hPa | 0 mm | - | 55 W/m² | - |
| 1787746391 | 19.44° C | 71% | 1017.7 hPa | 0 mm | - | 49 W/m² | - |
| 1787746089 | 19.44° C | 72% | 1017.5 hPa | 0 mm | - | 47 W/m² | - |
| 1787745784 | 19.44° C | 73% | 1017.5 hPa | 0 mm | - | 45 W/m² | - |
| 1787745482 | 18.89° C | 73% | 1017.5 hPa | 0 mm | - | 45 W/m² | - |
| 1787745177 | 18.89° C | 73% | 1017.6 hPa | 0 mm | - | 43 W/m² | - |
| 1787744873 | 18.33° C | 74% | 1017.6 hPa | 0 mm | - | 43 W/m² | - |
| 1787744569 | 18.33° C | 75% | 1017.4 hPa | 0 mm | - | 41 W/m² | - |
| 1787744264 | 18.33° C | 75% | 1017.5 hPa | 0 mm | - | 40 W/m² | - |
| 1787743961 | 17.78° C | 76% | 1017.6 hPa | 0 mm | - | 38 W/m² | - |
| 1787743660 | 17.78° C | 77% | 1017.4 hPa | 0 mm | - | 37 W/m² | - |
| 1787743355 | 17.22° C | 77% | 1017.5 hPa | 0 mm | - | 35 W/m² | - |
| 1787743052 | 17.22° C | 78% | 1017.3 hPa | 0 mm | - | 33 W/m² | - |
| 1787742747 | 17.22° C | 78% | 1017.5 hPa | 0 mm | - | 31 W/m² | - |
| 1787742442 | 16.67° C | 79% | 1017.2 hPa | 0 mm | - | 29 W/m² | - |
| 1787742138 | 16.67° C | 80% | 1017.3 hPa | 0 mm | - | 25 W/m² | - |
| 1787741833 | 16.67° C | 80% | 1017.1 hPa | 0 mm | - | 23 W/m² | - |
* Rain latest hour (hover to see other rain measurements)
** Current wind speed in m/s (hover to see current wind gust speed)